Weather History for Safford, AZ

Change the Weather History Date:

Saturday, August 30, 2014

  Actual Average Record
Temperature  
Mean Temperature 83 °F -  
Max Temperature 100 °F 93 °F 105 °F (2005)
Min Temperature 66 °F 64 °F 49 °F (1956)
Cooling Degree Days 18    
Growing Degree Days 33 (Base 50)    
Moisture  
Dew Point 45 °F    
Average Humidity 27    
Maximum Humidity 51    
Minimum Humidity 13    
Precipitation  
Precipitation 0.00 in - - ()
Sea Level Pressure  
Sea Level Pressure 29.75 in    
Wind  
Wind Speed 5 mph (ESE)    
Max Wind Speed 10 mph    
Max Gust Speed -    
Visibility 10 miles    
Events      
Averages and records for this station are not official NWS values.
T = Trace of Precipitation, MM = Missing Value Source: NWS Daily Summary

Daily Weather History Graph

Daily Weather History Graph

Search for Another Location

Airport:

Trip Planner

Search our weather history database for the weather conditions in past years. The results will help you decide how hot, cold, wet, or windy it might be!

Date:

Astronomy

Aug. 30, 2014 Rise Set
Actual Time 5:51 AM MST 6:45 PM MST
Civil Twilight 5:26 AM MST 7:10 PM MST
Nautical Twilight 4:56 AM MST 7:40 PM MST
Astronomical Twilight 4:26 AM MST 8:11 PM MST
Moon 10:25 AM MST (8/30) 9:40 PM MST (8/30)
Length of Visible Light 13h 44m
Length of Day
12h 53m
Waxing Crescent, 24% of the Moon is Illuminated
Aug 30
Waxing Crescent
Sep 2
First Quarter
Sep 8
Full
Sep 15
Last Quarter
Sep 23
New

Hourly Weather History & Observations

Time (MST) Temp. Dew Point Humidity Pressure Visibility Wind Dir Wind Speed Gust Speed Precip Events Conditions
12:51 AM 73.0 °F 48.0 °F 41% 29.77 in 10.0 mi SSE 4.6 mph - N/A   Clear
1:51 AM 71.1 °F 48.0 °F 44% 29.78 in 10.0 mi East 4.6 mph - N/A   Clear
2:51 AM 73.0 °F 46.0 °F 38% 29.77 in 10.0 mi NNE 9.2 mph - N/A   Clear
3:51 AM 70.0 °F 48.0 °F 46% 29.78 in 10.0 mi South 5.8 mph - N/A   Clear
4:51 AM 66.9 °F 48.0 °F 51% 29.80 in 10.0 mi North 5.8 mph - N/A   Clear
5:51 AM 70.0 °F 46.0 °F 42% 29.81 in 10.0 mi SE 5.8 mph - N/A   Clear
6:51 AM 71.1 °F 48.9 °F 45% 29.83 in 10.0 mi SE 4.6 mph - N/A   Clear
7:51 AM 81.0 °F 46.0 °F 29% 29.83 in 10.0 mi SE 10.4 mph - N/A   Clear
8:51 AM 86.0 °F 46.0 °F 25% 29.83 in 10.0 mi ESE 9.2 mph - N/A   Clear
9:51 AM 89.1 °F 45.0 °F 22% 29.83 in 10.0 mi SE 9.2 mph - N/A   Clear
10:51 AM 93.0 °F 43.0 °F 18% 29.81 in 10.0 mi East 8.1 mph - N/A   Clear
11:51 AM 95.0 °F 43.0 °F 17% 29.79 in 10.0 mi Calm Calm - N/A   Clear
12:51 PM 98.1 °F 43.0 °F 15% 29.76 in 10.0 mi NW 5.8 mph - N/A   Clear
1:51 PM 98.1 °F 42.1 °F 15% 29.73 in 10.0 mi Variable 5.8 mph - N/A   Clear
2:51 PM 98.1 °F 42.1 °F 15% 29.70 in 10.0 mi Calm Calm - N/A   Clear
3:51 PM 100.0 °F 41.0 °F 13% 29.70 in 10.0 mi North - - N/A   Clear
4:51 PM 99.0 °F 41.0 °F 14% 29.69 in 10.0 mi Calm Calm - N/A   Clear
5:51 PM 98.1 °F 41.0 °F 14% 29.68 in 10.0 mi North - - N/A   Clear
6:51 PM 93.9 °F 43.0 °F 17% 29.68 in 10.0 mi Calm Calm - N/A   Clear
7:51 PM 89.1 °F 45.0 °F 22% 29.69 in 10.0 mi West 4.6 mph - N/A   Clear
8:51 PM 84.0 °F 46.0 °F 26% 29.71 in 10.0 mi NW 5.8 mph - N/A   Clear
9:51 PM 82.9 °F 45.0 °F 26% 29.71 in 10.0 mi West 5.8 mph - N/A   Clear
10:51 PM 80.1 °F 45.0 °F 29% 29.71 in 10.0 mi North 4.6 mph - N/A   Clear
11:51 PM 80.1 °F 46.0 °F 30% 29.72 in 10.0 mi Calm Calm - N/A   Clear